Погода в Тямше

Россия / Псковская область     57°44′36″N   28°08′59″E
темп.,
°C
ветер,
м/с
пор.,
м/с
влажн.,
%
обл.,
%
осадки,
мм/ч
давл.,
гПа
погр.,
м
18 октября, пн
пн1800:00+4зюз410880 0.1 1009288
03:00+3зюз411841 0.1 1009334
06:00+4з6147279 0.1 1009653
09:00+4з6127446 0.1 10091042
12:00+7зсз6116687 0.1 10111453
15:00+8сз6106082 0.2 10121490
18:00+5зсз497071 0.1 1013295
21:00+4зсз5107997 0.2 1015486
19 октября, вт
вт1900:00+3зсз4108620 0.0 1017382
03:00+2зсз4108515 0.0 1018418
06:00+1зсз4108858 0.0 1019383
09:00+1сз5108320 0.0 1021545
12:00+4сз576415 0.0 10221004
15:00+5сз57535 0.0 10221082
18:00+2сз226297 0.0 102315
21:00+2юз1162100 0.0 102310
20 октября, ср
ср2000:00+1ююв236884 0.0 102257
03:00+1ююв3965100 0.0 1020276
06:00+2ююв51179100 0.1 1017523
09:00+2ююв61496100 1.6 1013611
12:00+4ююв71491100 2.3 1009650
15:00+5ю61594100 4.5 1004652
18:00+6ю71596100 4.5 1000639
21:00+9ююз61696100 7.6 996715
21 октября, чт
чт2100:00+13юз71687100 0.3 9941094
03:00+14юз91981100 0.3 9921338
06:00+14юз81679100 0.1 9911259
09:00+14юз81681100 0.3 9921303
12:00+14юз71482100 0.1 9921233
15:00+14ююз61281100 0.1 9911080
18:00+12ююз71587100 0.5 987944
21:00+12юз816755 1.1 9861334
22 октября, пт
пт2200:00+11ююз102376100 0.6 9841936
03:00+11зюз102073100 1.5 9851682
06:00+10зюз91974100 0.4 9891648
09:00+10зюз91774100 0.7 9921437
12:00+10зюз71368100 0.3 9961429
15:00+11зюз5106968 0.5 9981224
18:00+9ююз3879100 0.3 999305
21:00+9ююз41082100 0.3 999491